Tracking 28565 objects as of 3-Mar-2024
HD Live streaming from Space Station
objects crossing your sky now

LEMUR 2 SPACEGUS

Track LEMUR 2 SPACEGUS now!
10-day predictions
LEMUR 2 SPACEGUS is classified as:


NORAD ID: 56187
Int'l Code: 2023-054K
Perigee: 457.7 km
Apogee: 467.2 km
Inclination: 97.4 °
Period: 93.7 minutes
Semi major axis: 6833 km
RCS: Unknown
Launch date: April 15, 2023
Source: United States (US)
Launch site: AIR FORCE WESTERN TEST RANGE (AFWTR)

Uplink (MHz):
Downlink (MHz): 402.790
Beacon (MHz):
Mode:
Call sign:
Status: Unknown

Your satellite tracking list
Your tracking list is empty




NASA's NSSDC Master Catalog

Two Line Element Set (TLE):
1 56187U 23054K   24063.46076804  .00032606  00000-0  90300-3 0  9993
2 56187  97.3711 321.4144 0006965 147.7328 212.4343 15.36886835 49953
Source of the keplerian elements: AFSPC